This is the latest recevied weather packets stored in our database for station/object E22ZMG-2. If no packets are shown the sender has not sent any weather packets the latest 10 day(s).
| Time | Temp. | Humidity | Pressure | Rain* | Wind** | Luminosity | Snow |
|---|---|---|---|---|---|---|---|
| 1777958146 | 31.11° C | 54% | 928 hPa | - | - | 0 W/m² | - |
| 1777957522 | 31.11° C | 55% | 928 hPa | - | - | 0 W/m² | - |
| 1777956898 | 30.56° C | 57% | 928 hPa | - | - | 0 W/m² | - |
| 1777956274 | 30° C | 57% | 929 hPa | - | - | 0 W/m² | - |
| 1777955649 | 30° C | 58% | 929 hPa | - | - | 0 W/m² | - |
| 1777955025 | 30° C | 57% | 929 hPa | - | - | 0 W/m² | - |
| 1777954401 | 30.56° C | 58% | 929 hPa | - | - | 0 W/m² | - |
| 1777953777 | 30° C | 59% | 929 hPa | - | - | 0 W/m² | - |
| 1777953152 | 29.44° C | 58% | 929 hPa | - | - | 0 W/m² | - |
| 1777952528 | 30° C | 61% | 929 hPa | - | - | 0 W/m² | - |
| 1777951904 | 29.44° C | 62% | 929 hPa | - | - | 0 W/m² | - |
| 1777951280 | 29.44° C | 62% | 929 hPa | - | - | 0 W/m² | - |
| 1777950656 | 29.44° C | 62% | 930 hPa | - | - | 0 W/m² | - |
| 1777950031 | 29.44° C | 63% | 930 hPa | - | - | 0 W/m² | - |
| 1777949407 | 29.44° C | 62% | 929 hPa | - | - | 0 W/m² | - |
| 1777948783 | 29.44° C | 60% | 929 hPa | - | - | 0 W/m² | - |
| 1777948159 | 28.89° C | 61% | 929 hPa | - | - | 0 W/m² | - |
| 1777947535 | 28.89° C | 60% | 929 hPa | - | - | 0 W/m² | - |
| 1777946911 | 28.89° C | 60% | 929 hPa | - | - | 0 W/m² | - |
| 1777946287 | 28.89° C | 61% | 929 hPa | - | - | 0 W/m² | - |
| 1777945663 | 28.33° C | 61% | 929 hPa | - | - | 0 W/m² | - |
| 1777945038 | 27.78° C | 65% | 929 hPa | - | - | 0 W/m² | - |
| 1777944414 | 27.78° C | 66% | 929 hPa | - | - | 0 W/m² | - |
| 1777943790 | 27.22° C | 66% | 929 hPa | - | - | 0 W/m² | - |
| 1777943166 | 27.22° C | 66% | 929 hPa | - | - | 0 W/m² | - |
* Rain since midnight (hover to see other rain measurements)
** Current wind speed in m/s (hover to see current wind gust speed)